Regional Weather Roundup
Issued by NWS

Home | Current Version | Previous Version | Graphics & Text | Print | Product List | Glossary On
Versions: 1 2 3 4 5 6 7 8 9 10 11 12 13 14 15 16 17 18 19 20 21 22 23 24 25 26 27 28 29 30 31 32 33 34 35 36 37 38 39 40 41 42 43 44 45 46 47 48 49 50
000
ASUS45 KSLC 271810
RWRUT

UTAH REGIONAL WEATHER ROUNDUP
NATIONAL WEATHER SERVICE SALT LAKE CITY UT
1200 PM MDT FRI MAR 27 2015

UTZ001>011-023>025-271900-

NORTHERN UTAH

CITY           SKY/WX    TMP DP  RH WIND       PRES   REMARKS
BRIGHAM CITY     N/A     57  32  38 CALM      30.33F
HILL AFB         N/A     59  30  32 S5        30.32F
LOGAN          SUNNY     54  35  48 CALM      30.32F
OGDEN            N/A     60  29  30 VRB3      30.31F
PROVO AIRPORT  NOT AVBL
SALT LAKE CITY   N/A     60  31  33 VRB5      30.32F
VERNAL         SUNNY     58  25  28 CALM      30.31F
WENDOVER         N/A     55  28  35 E7        30.32F
HEBER CITY       N/A     54  28  37 CALM      30.34F
WEST JORDAN    SUNNY     61  34  36 SE3       30.33F

$$

UTZ012>022-026-027-271900-

SOUTHERN/CENTRAL UTAH

CITY           SKY/WX    TMP DP  RH WIND       PRES   REMARKS
BLANDING         N/A     60  24  25 SW7       30.40F
BRYCE CANYON     N/A     59  24  26 VRB3      30.40F
CEDAR CITY       N/A     60  25  26 CALM      30.32F
DELTA            N/A     58  26  28 CALM      30.32F
HANKSVILLE       N/A     63  23  22 CALM      30.30F
MILFORD          N/A     60  26  27 CALM      30.31F
MOAB/CYNLANDS  SUNNY     63  19  18 VRB6      30.27F
PRICE            N/A     62  26  25 S7        30.30F
ST GEORGE        N/A     64  28  25 CALM      30.27F
KANAB            N/A     64  27  24 CALM      30.34F

$$

REGIONAL REPORTS     COLORADO/ARIZONA

CITY           SKY/WX    TMP DP  RH WIND       PRES   REMARKS
CRAIG, CO      SUNNY     57  31  37 W10       30.32F
GRAND JUNCTION SUNNY     58  22  24 S8        30.29F
RIFLE          SUNNY     58  27  30 NW5       30.32F
MONTROSE       SUNNY     60  22  23 NW3       30.33F
CORTEZ         SUNNY     65  22  19 W10G16    30.31F
PAGE, AZ         N/A     61  23  23 NW5       30.29F
GRAND CANYON     N/A     66  15  14 VRB5      30.37F
KINGMAN          N/A     75  21  13 VRB3      30.23S
FLAGSTAFF        N/A     64  15  15 VRB3      30.39F

$$

REGIONAL REPORTS    NEVADA/IDAHO/WYOMING

CITY           SKY/WX    TMP DP  RH WIND       PRES   REMARKS
LAS VEGAS, NV    N/A     75  26  16 SE6       30.16F
ELY              N/A     65  22  19 CALM      30.33F
ELKO             N/A     60  32  34 CALM      30.29F
POCATELLO, ID  SUNNY     62  33  33 CALM      30.28F
BURLEY           N/A     63  36  36 VRB5      30.23F
EVANSTON, WY   MOSUNNY   55  31  39 SW6       30.36F
ROCK SPRINGS   SUNNY     55  30  38 W17       30.31F
KEMMERER       SUNNY     52  32  46 W10G18    30.36S

$$


USA.gov is the U.S. government's official web portal to all federal, state and local government web resources and services.